Find Starlink 11176

NORAD ID: 60060 Int'l Des: 2024-113 Owner: SPXS Country: US Constellation: starlink operational
別名: STARLINK-11176 [DTC] celestrak
LEOCIRCULAR

現在のビュー

3D地球を読み込み中...

About Starlink 11176

Starlink 11176 (NORAD 60060) is a starlink constellation satellite (v2 mini d2c) launched Jun 19, 2024 by SPXS of US. It operates in LEO, CIRCULAR orbit with a mass of 960.00 kg.

次回通過

Passes for default location (London). Set your location on the main map for personalized predictions.

高度履歴

Loading altitude history...

軌道要素

1 60060U 24113B 26265.13156958 .00000786 00000-0 11356-4 0 9993
2 60060 53.1585 302.8958 0002271 43.6569 316.4628 15.69711568130419
Epoch: Sep 22, 2026 • Age: 14 hours

現在のステータス

高度 358.8 km
遠地点 / 近地点 N/A
速度 7.70 km/s
衛星直下点 6.64°N, 49.29°E
打ち上げ日 Jun 19, 2024
運用期間 2.2 years
タイプ internet

技術仕様

分類 Payload
質量 960.00 kg
乾燥質量 910.00 kg
長さ 0.30 m
スパン 29.00 m
形状 ? Box + pan
製造者 SPXS
バスタイプ Starlink V2MD
フェーズステータス In Orbit
所有者/国 SPXS/US

Most Searched